Location: Brabourne
(51.1333°N, 1.0000°E)
Time: 01:00:21
(UTC+00:00)

SL-4 R/B - Visible Passes

Search period start: 24 October 2021 00:00
Search period end: 03 November 2021 00:00
Orbit: 427 x 661 km, 51.6° (Epoch: 23 October)

Date Brightness Start Highest point End Pass type
(mag) Time Alt. Az. Time Alt. Az. Time Alt. Az.
24 Oct 5.1 02:50:45 12° E 02:50:45 12° E 02:51:08 10° E visible
24 Oct 2.5 04:26:19 45° SSW 04:26:19 45° SSW 04:30:14 10° SE visible
24 Oct 4.2 06:03:21 10° WSW 06:04:58 12° SW 06:06:33 10° SSW visible
25 Oct 3.0 04:19:45 34° S 04:19:45 34° S 04:22:48 10° SE visible
26 Oct 3.7 04:13:17 23° S 04:13:17 23° S 04:15:17 10° SSE visible
27 Oct 4.4 04:06:57 14° SSE 04:06:57 14° SSE 04:07:42 10° SSE visible
02 Nov 4.3 18:51:53 10° S 18:53:21 16° S 18:53:21 16° S visible
